PUA253 VNKT-VGHS

Flight info

Callsign PUA253
Flight time 0h 57m
Altitude 35000
Route IGRIS1C AHALE R344 RAJ G463 OLPAS
Aircraft A320/M-SDE3FGHIRWY/LB1

Departure

Time 2026-04-23 01:29
Airport Tribhuvan International Airport (VNKT)

Arrival

Time 2026-04-23 02:26
Airport Hazrat Shahjalal International Airport (VGHS)
Time Latitude Longitude Altitude Speed Heading
2026-04-23 01:03 27.70535 85.36007 4387 ft 0 kts 247°
2026-04-23 01:11 27.70526 85.36006 4385 ft 6 kts 186°
2026-04-23 01:11 27.70498 85.36024 4387 ft 0 kts 116°
2026-04-23 01:11 27.70497 85.36026 4387 ft 2 kts 116°
2026-04-23 01:11 27.70485 85.36087 4383 ft 0 kts 83°
2026-04-23 01:15 27.70486 85.36088 4383 ft 2 kts 79°
2026-04-23 01:15 27.70493 85.36117 4387 ft 0 kts 73°
2026-04-23 01:15 27.70492 85.36127 4386 ft 1 kts 101°
2026-04-23 01:16 27.70484 85.36136 4386 ft 4 kts 137°
2026-04-23 01:16 27.70396 85.36136 4384 ft 17 kts 203°
2026-04-23 01:16 27.70276 85.36077 4374 ft 20 kts 203°
2026-04-23 01:16 27.70134 85.36012 4373 ft 24 kts 202°
2026-04-23 01:17 27.69972 85.35939 4374 ft 27 kts 201°
2026-04-23 01:17 27.69793 85.35858 4362 ft 29 kts 202°
2026-04-23 01:17 27.69601 85.35770 4351 ft 31 kts 201°
2026-04-23 01:17 27.69395 85.35678 4356 ft 33 kts 203°
2026-04-23 01:18 27.69235 85.35602 4348 ft 20 kts 202°
2026-04-23 01:18 27.69117 85.35554 4341 ft 0 kts 181°
2026-04-23 01:26 27.69115 85.35554 4351 ft 1 kts 181°
2026-04-23 01:26 27.69106 85.35554 4350 ft 0 kts 176°
2026-04-23 01:26 27.69102 85.35556 4341 ft 4 kts 163°
2026-04-23 01:27 27.68932 85.35605 4343 ft 29 kts 206°
2026-04-23 01:27 27.68811 85.35534 4343 ft 30 kts 204°
2026-04-23 01:27 27.68609 85.35437 4338 ft 32 kts 203°
2026-04-23 01:27 27.68460 85.35340 4335 ft 20 kts 219°
2026-04-23 01:28 27.68421 85.35345 4335 ft 4 kts 63°
2026-04-23 01:28 27.68469 85.35370 4336 ft 0 kts 19°
2026-04-23 01:28 27.68498 85.35383 4337 ft 0 kts 21°
2026-04-23 01:28 27.68511 85.35389 4337 ft 11 kts 21°
2026-04-23 01:29 27.68833 85.35533 4341 ft 87 kts 22°
2026-04-23 01:29 27.69595 85.35882 4360 ft 147 kts 21°
2026-04-23 01:29 27.70647 85.36346 4742 ft 165 kts 21°
2026-04-23 01:29 27.71721 85.36825 5441 ft 167 kts 22°
2026-04-23 01:30 27.72775 85.37485 5919 ft 184 kts 40°
2026-04-23 01:30 27.73637 85.38658 6296 ft 206 kts 62°
2026-04-23 01:30 27.74057 85.40284 6476 ft 229 kts 87°
2026-04-23 01:30 27.74051 85.42167 6828 ft 248 kts 91°
2026-04-23 01:31 27.73774 85.44096 7478 ft 252 kts 111°
2026-04-23 01:31 27.72821 85.45768 8236 ft 257 kts 135°
2026-04-23 01:31 27.71322 85.46864 8991 ft 261 kts 160°
2026-04-23 01:31 27.69523 85.47154 9744 ft 266 kts 185°
2026-04-23 01:32 27.67686 85.46721 10312 ft 274 kts 204°
2026-04-23 01:32 27.66030 85.45659 10965 ft 276 kts 221°
2026-04-23 01:32 27.64731 85.44069 11612 ft 280 kts 236°
2026-04-23 01:32 27.63431 85.42326 11844 ft 305 kts 219°
2026-04-23 01:33 27.61420 85.41333 12036 ft 332 kts 189°
2026-04-23 01:33 27.59048 85.41535 12175 ft 357 kts 162°
2026-04-23 01:33 27.56860 85.42990 12299 ft 380 kts 136°
2026-04-23 01:33 27.55344 85.45483 12472 ft 395 kts 110°
2026-04-23 01:34 27.54885 85.48539 12925 ft 401 kts 86°
2026-04-23 01:34 27.55563 85.51565 13452 ft 402 kts 62°
2026-04-23 01:34 27.57261 85.54043 13987 ft 403 kts 39°
2026-04-23 01:34 27.59498 85.55955 14493 ft 405 kts 37°
2026-04-23 01:35 27.61510 85.58184 15005 ft 410 kts 54°
2026-04-23 01:35 27.62664 85.61126 15514 ft 415 kts 77°
2026-04-23 01:35 27.62724 85.64370 16023 ft 420 kts 100°
2026-04-23 01:35 27.61668 85.67434 16544 ft 424 kts 123°
2026-04-23 01:36 27.59732 85.69948 17066 ft 427 kts 137°
2026-04-23 01:36 27.57511 85.72183 17572 ft 429 kts 136°
2026-04-23 01:36 27.55491 85.74666 18071 ft 432 kts 128°
2026-04-23 01:36 27.53621 85.77330 18522 ft 434 kts 129°
2026-04-23 01:37 27.51622 85.79896 18927 ft 437 kts 133°
2026-04-23 01:37 27.49479 85.82338 19348 ft 440 kts 136°
2026-04-23 01:37 27.47212 85.84669 19755 ft 443 kts 138°
2026-04-23 01:37 27.44863 85.86936 20171 ft 446 kts 139°
2026-04-23 01:38 27.42484 85.89182 20590 ft 448 kts 139°
2026-04-23 01:38 27.40095 85.91453 20957 ft 450 kts 139°
2026-04-23 01:38 27.37718 85.93757 21363 ft 452 kts 138°
2026-04-23 01:38 27.35349 85.96099 21744 ft 455 kts 137°
2026-04-23 01:39 27.32982 85.98470 22117 ft 457 kts 137°
2026-04-23 01:39 27.30608 86.00861 22489 ft 459 kts 137°
2026-04-23 01:39 27.28223 86.03263 22822 ft 462 kts 137°
2026-04-23 01:39 27.25821 86.05672 23177 ft 464 kts 137°
2026-04-23 01:40 27.23401 86.08090 23529 ft 466 kts 137°
2026-04-23 01:40 27.20983 86.10522 23813 ft 468 kts 135°
2026-04-23 01:40 27.18796 86.13237 24094 ft 469 kts 126°
2026-04-23 01:40 27.16907 86.16228 24337 ft 471 kts 123°
2026-04-23 01:41 27.15034 86.19254 24610 ft 473 kts 123°
2026-04-23 01:41 27.13151 86.22290 24870 ft 475 kts 124°
2026-04-23 01:41 27.11253 86.25343 25145 ft 477 kts 124°
2026-04-23 01:41 27.09352 86.28392 25433 ft 478 kts 124°
2026-04-23 01:42 27.07443 86.31451 25695 ft 479 kts 124°
2026-04-23 01:42 27.05526 86.34520 25920 ft 481 kts 124°
2026-04-23 01:42 27.03599 86.37607 26158 ft 483 kts 124°
2026-04-23 01:42 27.01670 86.40699 26377 ft 485 kts 124°
2026-04-23 01:43 26.99732 86.43805 26578 ft 487 kts 124°
2026-04-23 01:43 26.97783 86.46924 26770 ft 489 kts 124°
2026-04-23 01:43 26.95828 86.50048 26957 ft 490 kts 124°
2026-04-23 01:43 26.93871 86.53170 27194 ft 490 kts 124°
2026-04-23 01:44 26.91913 86.56290 27442 ft 489 kts 124°
2026-04-23 01:44 26.89958 86.59406 27723 ft 488 kts 124°
2026-04-23 01:44 26.88007 86.62516 28029 ft 487 kts 124°
2026-04-23 01:44 26.86066 86.65614 28317 ft 486 kts 124°
2026-04-23 01:45 26.84118 86.68707 28593 ft 486 kts 124°
2026-04-23 01:45 26.82164 86.71793 28800 ft 486 kts 124°
2026-04-23 01:45 26.80201 86.74881 29011 ft 488 kts 124°
2026-04-23 01:45 26.78228 86.77981 29222 ft 489 kts 124°
2026-04-23 01:46 26.76254 86.81078 29492 ft 489 kts 124°
2026-04-23 01:46 26.74282 86.84176 29767 ft 489 kts 124°
2026-04-23 01:46 26.72306 86.87280 30032 ft 489 kts 124°
2026-04-23 01:46 26.70335 86.90376 30232 ft 489 kts 124°
2026-04-23 01:47 26.68360 86.93482 30453 ft 490 kts 124°
2026-04-23 01:47 26.66388 86.96590 30684 ft 490 kts 124°
2026-04-23 01:47 26.64421 86.99687 30928 ft 489 kts 125°
2026-04-23 01:47 26.62444 87.02790 31142 ft 490 kts 125°
2026-04-23 01:48 26.60465 87.05891 31352 ft 491 kts 125°
2026-04-23 01:48 26.58482 87.08995 31540 ft 491 kts 125°
2026-04-23 01:48 26.56520 87.12064 31750 ft 492 kts 126°
2026-04-23 01:48 26.54504 87.15215 31961 ft 493 kts 126°
2026-04-23 01:49 26.52507 87.18331 32140 ft 495 kts 126°
2026-04-23 01:49 26.50367 87.21288 32277 ft 496 kts 135°
2026-04-23 01:49 26.47793 87.23916 32474 ft 495 kts 144°
2026-04-23 01:49 26.44933 87.26048 32660 ft 493 kts 154°
2026-04-23 01:50 26.41883 87.27644 32883 ft 489 kts 162°
2026-04-23 01:50 26.38696 87.28978 33113 ft 489 kts 163°
2026-04-23 01:50 26.35509 87.30312 33334 ft 489 kts 163°
2026-04-23 01:50 26.32305 87.31576 33577 ft 488 kts 165°
2026-04-23 01:51 26.29034 87.32745 33821 ft 487 kts 167°
2026-04-23 01:51 26.25829 87.33806 34044 ft 486 kts 169°
2026-04-23 01:51 26.22584 87.34845 34245 ft 485 kts 170°
2026-04-23 01:51 26.19348 87.35884 34501 ft 484 kts 170°
2026-04-23 01:52 26.16125 87.36939 34738 ft 483 kts 170°
2026-04-23 01:52 26.12913 87.38016 34819 ft 483 kts 170°
2026-04-23 01:52 26.06491 87.40224 34818 ft 483 kts 169°
2026-04-23 01:53 26.00077 87.42436 34817 ft 483 kts 170°
2026-04-23 01:53 25.93654 87.44620 34810 ft 482 kts 170°
2026-04-23 01:54 25.87236 87.46797 34808 ft 482 kts 171°
2026-04-23 01:54 25.80823 87.48974 34804 ft 482 kts 171°
2026-04-23 01:55 25.74409 87.51144 34804 ft 482 kts 171°
2026-04-23 01:55 25.67990 87.53319 34804 ft 482 kts 171°
2026-04-23 01:56 25.61660 87.55914 34784 ft 494 kts 159°
2026-04-23 01:56 25.55980 87.60414 34788 ft 507 kts 148°
2026-04-23 01:57 25.50493 87.65324 34796 ft 507 kts 148°
2026-04-23 01:57 25.44987 87.70204 34805 ft 507 kts 148°
2026-04-23 01:58 25.39471 87.75079 34795 ft 508 kts 149°
2026-04-23 01:58 25.33942 87.79971 34793 ft 509 kts 148°
2026-04-23 01:59 25.28416 87.84873 34801 ft 510 kts 148°
2026-04-23 01:59 25.22888 87.89778 34803 ft 510 kts 148°
2026-04-23 02:00 25.17351 87.94683 34813 ft 510 kts 148°
2026-04-23 02:00 25.11808 87.99566 34812 ft 510 kts 149°
2026-04-23 02:01 25.06251 88.04444 34821 ft 510 kts 149°
2026-04-23 02:01 25.00709 88.09327 34807 ft 510 kts 149°
2026-04-23 02:02 24.95153 88.14221 34794 ft 512 kts 149°
2026-04-23 02:02 24.89582 88.19110 34804 ft 512 kts 149°
2026-04-23 02:03 24.84074 88.24129 34798 ft 515 kts 147°
2026-04-23 02:03 24.78637 88.29273 34807 ft 516 kts 147°
2026-04-23 02:04 24.74113 88.33552 34813 ft 516 kts 147°
2026-04-23 02:04 24.68637 88.38649 34801 ft 515 kts 148°
2026-04-23 02:05 24.63148 88.43718 34811 ft 515 kts 148°
2026-04-23 02:05 24.57664 88.48783 34812 ft 516 kts 148°
2026-04-23 02:06 24.52172 88.53863 34816 ft 516 kts 148°
2026-04-23 02:06 24.46780 88.59100 34815 ft 524 kts 140°
2026-04-23 02:07 24.42596 88.65790 34819 ft 541 kts 120°
2026-04-23 02:07 24.39889 88.73543 34819 ft 546 kts 114°
2026-04-23 02:08 24.38579 88.77456 34655 ft 546 kts 114°
2026-04-23 02:08 24.37262 88.81360 34403 ft 546 kts 114°
2026-04-23 02:08 24.35937 88.85274 34175 ft 547 kts 114°
2026-04-23 02:08 24.34613 88.89182 33946 ft 547 kts 114°
2026-04-23 02:09 24.33287 88.93094 33712 ft 548 kts 114°
2026-04-23 02:09 24.31962 88.97016 33454 ft 547 kts 114°
2026-04-23 02:09 24.30645 89.00925 33193 ft 546 kts 113°
2026-04-23 02:09 24.29330 89.04820 32908 ft 544 kts 113°
2026-04-23 02:10 24.28012 89.08714 31768 ft 546 kts 112°
2026-04-23 02:10 24.26702 89.12579 30328 ft 536 kts 111°
2026-04-23 02:10 24.25414 89.16378 28781 ft 531 kts 111°
2026-04-23 02:10 24.24132 89.20154 27682 ft 525 kts 110°
2026-04-23 02:11 24.22868 89.23881 26489 ft 520 kts 110°
2026-04-23 02:11 24.21607 89.27598 25099 ft 516 kts 110°
2026-04-23 02:11 24.20357 89.31272 23368 ft 518 kts 109°
2026-04-23 02:11 24.19122 89.34891 22493 ft 497 kts 109°
2026-04-23 02:12 24.17917 89.38405 21501 ft 491 kts 109°
2026-04-23 02:12 24.16730 89.41871 20531 ft 479 kts 109°
2026-04-23 02:12 24.15576 89.45250 19203 ft 473 kts 109°
2026-04-23 02:12 24.14429 89.48608 18378 ft 468 kts 109°
2026-04-23 02:13 24.13291 89.51937 17466 ft 466 kts 109°
2026-04-23 02:13 24.12160 89.55236 16593 ft 461 kts 109°
2026-04-23 02:13 24.11030 89.58506 15765 ft 458 kts 109°
2026-04-23 02:13 24.09878 89.61738 14968 ft 454 kts 110°
2026-04-23 02:14 24.08713 89.64938 14192 ft 451 kts 110°
2026-04-23 02:14 24.07544 89.68121 13415 ft 449 kts 110°
2026-04-23 02:14 24.06396 89.71246 13127 ft 434 kts 110°
2026-04-23 02:14 24.05298 89.74244 12995 ft 416 kts 110°
2026-04-23 02:15 24.03243 89.79892 12740 ft 384 kts 110°
2026-04-23 02:15 24.02279 89.82550 12617 ft 370 kts 110°
2026-04-23 02:15 24.01348 89.85120 12491 ft 357 kts 110°
2026-04-23 02:16 24.00451 89.87598 12358 ft 345 kts 110°
2026-04-23 02:16 23.99577 89.90002 12235 ft 334 kts 110°
2026-04-23 02:16 23.98740 89.92299 12079 ft 326 kts 110°
2026-04-23 02:16 23.97896 89.94611 11871 ft 321 kts 110°
2026-04-23 02:17 23.97083 89.96847 11606 ft 323 kts 110°
2026-04-23 02:17 23.96167 89.99129 11230 ft 323 kts 118°
2026-04-23 02:17 23.95097 90.01270 10846 ft 318 kts 118°
2026-04-23 02:17 23.94040 90.03390 10219 ft 317 kts 118°
2026-04-23 02:18 23.92985 90.05504 9634 ft 316 kts 118°
2026-04-23 02:18 23.91932 90.07618 9266 ft 315 kts 119°
2026-04-23 02:18 23.90892 90.09706 8924 ft 312 kts 119°
2026-04-23 02:18 23.89859 90.11777 8571 ft 310 kts 119°
2026-04-23 02:19 23.88837 90.13821 8041 ft 304 kts 120°
2026-04-23 02:19 23.87828 90.15836 7449 ft 300 kts 120°
2026-04-23 02:19 23.86850 90.17795 6887 ft 295 kts 120°
2026-04-23 02:19 23.85862 90.19769 6348 ft 289 kts 121°
2026-04-23 02:20 23.84909 90.21676 5783 ft 284 kts 121°
2026-04-23 02:20 23.83972 90.23552 5530 ft 280 kts 121°
2026-04-23 02:20 23.83041 90.25414 5137 ft 278 kts 121°
2026-04-23 02:20 23.82116 90.27267 4749 ft 277 kts 121°
2026-04-23 02:21 23.81201 90.29099 4384 ft 273 kts 121°
2026-04-23 02:21 23.80295 90.30909 3882 ft 268 kts 121°
2026-04-23 02:21 23.79417 90.32661 3458 ft 258 kts 121°
2026-04-23 02:21 23.78578 90.34337 3080 ft 246 kts 121°
2026-04-23 02:22 23.77773 90.35940 2685 ft 237 kts 121°
2026-04-23 02:22 23.77005 90.37464 2536 ft 218 kts 120°
2026-04-23 02:22 23.76313 90.38841 2485 ft 196 kts 121°
2026-04-23 02:22 23.75694 90.40077 2392 ft 177 kts 121°
2026-04-23 02:23 23.75138 90.41187 2298 ft 161 kts 121°
2026-04-23 02:23 23.74614 90.42232 2224 ft 153 kts 121°
2026-04-23 02:23 23.74166 90.43261 2142 ft 146 kts 105°
2026-04-23 02:23 23.74192 90.44371 2077 ft 150 kts 74°
2026-04-23 02:24 23.74758 90.45330 2002 ft 154 kts 41°
2026-04-23 02:24 23.75725 90.45827 1903 ft 157 kts
2026-04-23 02:24 23.76795 90.45681 1578 ft 162 kts 333°
2026-04-23 02:24 23.77735 90.45016 1320 ft 157 kts 322°
2026-04-23 02:25 23.78598 90.44332 1115 ft 155 kts 322°
2026-04-23 02:25 23.79468 90.43642 919 ft 154 kts 322°
2026-04-23 02:25 23.80328 90.42960 773 ft 152 kts 322°
2026-04-23 02:25 23.81186 90.42279 560 ft 151 kts 324°
2026-04-23 02:26 23.82022 90.41616 358 ft 148 kts 325°
2026-04-23 02:26 23.82848 90.40960 162 ft 146 kts 323°
2026-04-23 02:26 23.83649 90.40316 34 ft 132 kts 323°
2026-04-23 02:26 23.84154 90.39915 29 ft 47 kts 329°
2026-04-23 02:27 23.84263 90.39891 29 ft 0 kts 357°
2026-04-23 02:27 23.84331 90.39881 29 ft 21 kts 356°
2026-04-23 02:27 23.84460 90.39954 30 ft 23 kts 52°
2026-04-23 02:27 23.84556 90.40102 30 ft 25 kts 53°
2026-04-23 02:28 23.84645 90.40233 30 ft 14 kts 53°
2026-04-23 02:28 23.84696 90.40320 30 ft 13 kts 72°
2026-04-23 02:28 23.84729 90.40407 30 ft 9 kts 53°
2026-04-23 02:28 23.84744 90.40430 30 ft 1 kts 56°
2026-04-23 02:29 23.84745 90.40432 30 ft 0 kts 56°